星链-4773 (STARLINK-4773 )

导读 | 豆包AI

STARLINK-4773是由美国于2022年9月19日发射的Starlink卫星,属于SpaceX星链星座组网卫星之一,星链项目旨在构建全球卫星互联网星座,为全球用户提供高速低延迟的互联网接入服务,该卫星发射后进入近地轨道参与星座运营,支撑星链网络服务覆盖能力的拓展。

基本信息
目录编号:
53838
目录名称:
STARLINK-4773
国际标识:
2022-114W
轨道中心:
EARTH
卫星名称:
星链-4773
卫星全名:
星链-4773 (STARLINK-4773 )
卫星状态:
在轨 (已飞行1273 天)
发射日期:
2022-09-19 UTC
国别 :
美国 (US)
星等 :
--
轨道信息
数据来源 国际轨道数据 AOE轨道数据
星历时间 2026-03-15T03:39:51+0800
12小时前
查看轨道信息
2026-03-15T11:00:00+0800
5小时前
查看轨道信息
半长轴 6917.881km 6917.837km
偏心率 0.0001264 0.0001424
轨道倾角 53.216° 53.216°
近地点辐角 93.315° 77.700°
升交点赤经 271.258° 269.889°
平近点角 266.798° 143.604°
近地点 538.869km 538.714km
远地点 540.619km 540.686km
周期 95.438分钟 95.437分钟
每日圈数 15.088399 15.088544
详细信息
固有亮度:
5
最大亮度:
2.5
卫星平台:
Starlink v1.5
覆盖范围:
全球
运营商:
太空探索技术公司
运营商所在国:
美国
制造商(研发单位):
太空探索技术公司
制造商所在国:
美国
使用方式:
暂无
卫星简介
星链(Starlink)计划是由太空探索技术公司(SpaceX)提出的一个巨型低轨卫星互联网星座项目,计划在2019年至2024年间在太空搭建由约1.2万颗卫星组成的“星链”网络,其中1584颗将部署在地球上空550千米处的近地轨道,并从2020年开始工作。该卫星仍在工作。
2D轨道图
3D轨道图
轨道高度分析图
轨道倾角分析图
轨道综合分析图
查看轨道综合分析图